Location: LDNL
(36.4545°S, 141.6685°E)
Time: 07:39:52
(UTC+11:00)

ISS - Pass Details

Date: 11 December 2022
Orbit: 412 x 423 km, 51.6° (Epoch: 07 February)

Event Time Altitude Azimuth Distance (km) Brightness Sun altitude
Rises 23:43:16 0° 273° (W) 2,414 0.4 -25.7°
Reaches altitude 10° 23:45:51 10° 253° (WSW) 1,556 -0.4 -25.9°
Maximum altitude 23:48:22 18° 207° (SSW) 1,148 -0.7 -26.2°
Drops below altitude 10° 23:50:56 10° 161° (SSE) 1,574 -0.3 -26.4°
Sets 23:53:33 0° 141° (SE) 2,452 0.5 -26.6°
